This demonstration page uses our WeatherBlox Daily Observations layout. Learn more.

39.01783, -85.05884

Hourly Observations for January 17, 2019

Temp ( °F °C ) Dew Point ( °F °C ) Humidity (%) Winds ( mph kmh ) Pressure ( in mb ) Visibility ( mi km ) Precip ( " mm )
12:52 am 00:52 Cloudy with Light Drizzle 33 0.6 30 -1.1 89 89 ESE 8 13 30.24 1024 6 9.656064 0.001 0.001
1:43 am 01:43 Cloudy 33 0.6 29 -1.7 85 85 ESE 10 17 30.27 1025 7 11.265408 0.001 0.001
1:52 am 01:52 Cloudy 33 0.6 29 -1.7 85 85 SE 10 17 30.21 1023 7 11.265408 0.001 0.001
2:11 am 02:11 Cloudy 33 0.6 29 -1.7 85 85 ESE 13 20 30.27 1025 7 11.265408 0 0
2:33 am 02:33 Cloudy 33 0.6 29 -1.7 85 85 ESE 10 17 30.27 1025 9 14.484096 0 0
2:52 am 02:52 Cloudy 33 0.6 29 -1.7 85 85 SE 8 13 30.21 1023 8 12.874752 0 0
3:48 am 03:48 Cloudy 34 1 28 -2 81 81 ESE 9 15 30.27 1025 8 12.874752 0 0
3:52 am 03:52 Cloudy 33 0.6 29 -1.7 85 85 ESE 10 17 30.21 1023 8 12.874752 0 0
4:52 am 04:52 Cloudy 34 1.1 30 -1.1 85 85 SE 7 11 30.18 1022 7 11.265408 0 0
5:52 am 05:52 Cloudy 34 1.1 30 -1.1 85 85 SE 10 17 30.15 1021 7 11.265408 0 0
6:04 am 06:04 Cloudy with Light Drizzle 34 1.1 30 -1.1 85 85 SE 12 19 30.21 1023 6 9.656064 0.001 0.001
6:52 am 06:52 Cloudy with Light Rain 34 1.1 30 -1.1 85 85 SE 10 17 30.15 1021 6 9.656064 0.001 0.001
7:12 am 07:12 Cloudy with Light Rain 34 1.1 31 -0.6 89 89 SE 8 13 30.21 1023 5 8.04672 0.001 0.001
7:52 am 07:52 Cloudy with Light Rain 34 1.1 31 -0.6 89 89 SE 9 15 30.12 1020 4 6.437376 0.02 0.508
8:15 am 08:15 Cloudy with Light Rain 34 1.1 31 -0.6 89 89 ESE 8 13 30.18 1022 3 4.828032 0.02 0.508
8:39 am 08:39 Cloudy with Light Rain 34 1.1 31 -0.6 89 89 SE 8 13 30.18 1022 3 4.828032 0.03 0.762
8:52 am 08:52 Cloudy with Light Rain 34 1.1 31 -0.6 89 89 ESE 9 15 30.12 1020 3 4.828032 0.03 0.762
9:52 am 09:52 Cloudy with Light Rain 34 1.1 32 0 92 92 SSE 8 13 30.12 1020 3 4.828032 0.001 0.001
10:08 am 10:08 Cloudy with Mist and Fog 35 1.7 32 0 89 89 SE 12 19 30.12 1020 3 4.828032 0.001 0.001
10:52 am 10:52 Cloudy with Light Rain 35 1.7 33 0.6 93 93 SSE 9 15 30.12 1020 3 4.828032 0.001 0.001
11:25 am 11:25 Cloudy with Light Rain 36 2.2 33 0.6 89 89 SSE 10 17 30.12 1020 3 4.828032 0.001 0.001
11:52 am 11:52 Cloudy with Light Rain 36 2.2 33 0.6 89 89 SSE 9 15 30.09 1019 3 4.828032 0.01 0.254
12:52 pm 12:52 Cloudy with Light Rain 36 2.2 34 1.1 93 93 SSE 8 13 30.03 1017 3 4.828032 0.02 0.508
1:52 pm 13:52 Cloudy with Light Rain 37 2.8 35 1.7 93 93 SE 8 13 30 1016 3 4.828032 0.02 0.508
2:12 pm 14:12 Cloudy with Light Rain 37 2.8 35 1.7 93 93 SSE 9 15 30.03 1017 3 4.828032 0.001 0.001
2:22 pm 14:22 Cloudy with Light Rain 37 2.8 35 1.7 93 93 SSE 8 13 30 1016 2 3.218688 0.001 0.001
2:26 pm 14:26 Cloudy with Light Rain 37 2.8 35 1.7 93 93 SSE 9 15 30 1016 1.5 2.414016 0.01 0.254
2:52 pm 14:52 Cloudy with Light Drizzle 37 2.8 35 1.7 93 93 SSE 6 9 29.97 1015 1 1.609344 0.01 0.254
3:12 pm 15:12 Cloudy with Light Rain 37 2.8 36 2.2 96 96 SSE 7 11 30 1016 1 1.609344 0.001 0.001
3:52 pm 15:52 Cloudy with Light Rain 37 2.8 36 2.2 96 96 SSE 8 13 29.97 1015 1 1.609344 0.01 0.254
4:52 pm 16:52 Cloudy with Light Drizzle 37 2.8 37 2.8 100 100 S 6 9 29.97 1015 1.5 2.414016 0.01 0.254
5:20 pm 17:20 Cloudy with Light Rain 38 3.3 36 2.2 93 93 S 7 11 30 1016 0.75 1.207008 0.01 0.254
5:52 pm 17:52 Cloudy with Light Drizzle 39 3.9 37 2.8 93 93 S 6 9 29.97 1015 0.75 1.207008 0.01 0.254
6:52 pm 18:52 Cloudy with Mist and Fog 39 3.9 38 3.3 96 96 SW 6 9 29.97 1015 0.75 1.207008 0.001 0.001
7:52 pm 19:52 Cloudy with Light Drizzle 39 3.9 38 3.3 96 96 SW 6 9 29.97 1015 0.75 1.207008 0.001 0.001
8:52 pm 20:52 Cloudy with Light Rain 39 3.9 38 3.3 96 96 W 8 13 29.97 1015 0.75 1.207008 0.001 0.001
9:52 pm 21:52 Mostly Cloudy with Mist and Fog 39 3.9 37 2.8 93 93 W 13 20 30 1016 0.75 1.207008 0.01 0.254
10:22 pm 22:22 Cloudy with Mist and Fog 38 3.3 36 2.2 93 93 W 13 20 30.06 1018 2 3.218688 0 0
10:52 pm 22:52 Cloudy with Patchy Fog 37 2.8 36 2.2 96 96 WNW 12 19 30.03 1017 0.5 0.804672 0 0
11:25 pm 23:25 Cloudy with Mist and Fog 37 2.8 35 1.7 93 93 WNW 10 17 30.06 1018 5 8.04672 0 0
11:52 pm 23:52 Cloudy with Mist and Fog 37 2.8 35 1.7 93 93 WNW 9 15 30.03 1017 5 8.04672 0 0

Powered by AerisWeather